Regional Weather Roundup
Issued by NWS

Home | Current Version | Previous Version | Graphics & Text | Print | Product List | Glossary Off
Versions: 1 2 3 4 5 6 7 8 9 10 11 12 13 14 15 16 17 18 19 20 21 22 23 24 25 26 27 28 29 30 31 32 33 34 35 36 37 38 39 40 41 42 43 44 45 46 47 48 49 50

000
ASUS45 KSLC 240710
RWRUT

UTAH REGIONAL WEATHER ROUNDUP
NATIONAL WEATHER SERVICE SALT LAKE CITY UT
1200 AM MST TUE JAN 24 2017

UTZ001>011-023>025-240800-

NORTHERN UTAH

CITY           SKY/WX    TMP DP  RH WIND       PRES   REMARKS
BRIGHAM CITY     N/A     29  27  92 CALM      29.64S
HILL AFB       MOCLDY    28  23  79 SW8       29.62S WCI  20
LOGAN          LGT SNOW  28  28 100 SE5       29.62R FOG     WCI  23
OGDEN          CLOUDY    27  26  96 SE5       29.63R WCI  22
SALT LAKE CITY FLURRIES  32  26  78 NE6       29.64R WCI  26
TOOELE VALLEY  CLOUDY    32  27  80 N8        29.65R WCI  25
WENDOVER       MOCLDY    27  16  63 NW7       29.64S WCI  19
HEBER CITY     CLOUDY    25  19  80 SE6       29.58R WCI  18
WEST JORDAN    CLOUDY    28  28 100 CALM      29.64R

$$

UTZ011>015-024>027-240800-

CENTRAL/NORTHEAST UTAH

CITY           SKY/WX    TMP DP  RH WIND       PRES   REMARKS
PROVO AIRPORT  CLOUDY    29  28  96 SE5       29.64S WCI  24
MOAB/CANYONLAN MOCLDY    35  27  72 SW3       29.56S
DELTA          CLOUDY    28  27  93 CALM      29.65R
PRICE          FLURRIES  25  22  88 W3        29.56R
RICHFIELD      CLOUDY    28  23  80 SW7       29.64  WCI  21
ROOSEVELT      SNOW      18  14  86 W6        29.58R VSB 1/2 WCI   9
VERNAL         CLOUDY    15  13  91 CALM      29.54S

$$

UTZ013>016-019>022-027-240800-

SOUTHERN UTAH

CITY           SKY/WX    TMP DP  RH WIND       PRES   REMARKS
BRYCE CANYON   CLOUDY    12   9  87 SW7       29.58S WCI   1
CEDAR CITY     CLOUDY    23  21  92 SW3       29.61S
MILFORD        PTCLDY    23  18  81 W9        29.63S WCI  13
ST GEORGE      CLOUDY    36  30  80 S7        29.72F WCI  30
HANKSVILLE     MOCLDY    32  27  80 MISG      29.62R
KANAB          CLOUDY    30  30 100 NW5       29.70  FOG     WCI  25
BLANDING       CLOUDY    29  29 100 SW6       29.67F WCI  22

$$

REGIONAL REPORTS     COLORADO/ARIZONA

CITY           SKY/WX    TMP DP  RH WIND       PRES   REMARKS
CRAIG, CO      CLOUDY    30  19  63 SW10      29.53S WCI  21
GRAND JUNCTION CLOUDY    31  29  92 E3        29.56F
RIFLE, CO      CLOUDY    28  25  88 SW3       29.57S
MONTROSE, CO   CLEAR     32  22  66 E8        29.59F WCI  25
CORTEZ, CO     CLOUDY    25  24  96 NE3       29.62F
COLORADO CITY  CLOUDY    32  32 100 W5        29.69S WCI  27
PAGE, AZ       CLOUDY    37  28  70 CALM      29.62S
GRAND CANYON   HVY SNOW  25  24  96 SW8       29.65S VSB 1/4 WCI  16
KINGMAN, AZ    PTCLDY    36  31  82 SW10      29.74R WCI  28
FLAGSTAFF, AZ  LGT SNOW  25  23  92 SW9       29.63F FOG     WCI  15

$$

REGIONAL REPORTS    NEVADA/IDAHO/WYOMING

CITY           SKY/WX    TMP DP  RH WIND       PRES   REMARKS
LAS VEGAS, NV  MOCLDY    43  31  62 S6        29.72R
ELY, NY        MOCLDY    -2  -6  83 S8        29.68R WCI -17
ELKO, NV       CLOUDY    25  18  74 VRB3      29.71S
POCATELLO, ID  LGT SNOW  26  24  92 SW18      29.61R FOG     WCI  13
BURLEY, ID     MIX PCPN  28  21  75 W15       29.61R WCI  16
FORT BRIDGER,    N/A     22  20  95 SW21      29.55R WCI   6
EVANSTON, WY   CLOUDY    18  14  84 SW15      29.53R WCI   4
ROCK SPRINGS,  LGT SNOW  22  17  81 W20       29.51R WCI   7

$$



USA.gov is the U.S. government's official web portal to all federal, state and local government web resources and services.